Weather in Kirnichki

Ukraine / Odesa District     45°42′24″N   29°03′48″E
temp.,
°C
wind,
m/s
gust,
m/s
humid.,
%
clouds,
%
prec.,
mm/h
press.,
hPa
HPBL,
m
25 february, thu
thu2523:00+4s348494 0.0 1035132
02:00+4ssw358697 0.1 1035170
05:00+4sw359398 0.0 1034137
08:00+5w368799 0.0 1034204
11:00+10w3473100 0.0 1034425
14:00+13nnw346473 0.0 1032909
17:00+12n347387 0.0 1031356
20:00+9s228551 0.0 103122
26 february, fri
fri2623:00+8ssw238716 0.0 103126
02:00+7ssw23878 0.0 103027
05:00+6ssw23870 0.0 102924
08:00+7ssw23830 0.0 102855
11:00+13sw34620 0.0 1027382
14:00+16sw45530 0.0 1025601
17:00+15sw34610 0.0 1023118
20:00+12sw23710 0.0 102322
27 february, sat
sat2723:00+10sw11820 0.0 102222
02:00+9n33770 0.0 102127
05:00+7n33800 0.0 101932
08:00+8nnw714840 0.0 1020477
11:00+8n7126792 0.0 1021768
14:00+9nnw9115896 0.0 10211068
17:00+7nnw9126072 0.0 10211290
20:00+5nnw5137054 0.0 1022847
28 february, sun
sun2823:00+4nw614720 0.0 1023800
02:00+3nnw916770 0.0 1024806
05:00+3nnw9138149 0.0 10241026
08:00+3nnw7118173 0.1 1026935
11:00+3nnw7108768 0.3 1027729
14:00+5nnw8116683 0.4 10271306
17:00+4nnw8106197 0.1 10271259
20:00+3nnw587098 0.1 1029873
1 march, mon
mon123:00+3nnw5873100 0.1 10301033
02:00+2nnw5879100 0.1 1030642
05:00+1nnw4882100 0.0 1030631
08:00+2n5874100 0.1 1031902
11:00+4n576040 0.0 10321227
14:00+5nne565368 0.0 10321339
17:00+5nne575585 0.0 10321321
20:00+3ne476189 0.0 1034549